Stündliche Wetter Abbeville

Heute, 17 Juni, Donnerstag

Zeit Temperatur Niederschläge Wind Luftdruck Luftfeuchtigkeit
00:00 +20°C° 1.4 mm 1 m/S 754 mmHg 95%
01:00 +19°C° 0.5 mm 3 m/S 754 mmHg 95%
02:00 +19°C° 0.5 mm 4 m/S 754 mmHg 95%
03:00 +19°C° 0.5 mm 5 m/S 754 mmHg 96%
04:00 +20°C° 0.5 mm 4 m/S 754 mmHg 95%
05:00 +20°C° 0.5 mm 3 m/S 754 mmHg 94%
06:00 +20°C° 0.5 mm 2 m/S 754 mmHg 93%
07:00 +22°C° 0 mm 3 m/S 755 mmHg 86%
08:00 +24°C° 0 mm 3 m/S 755 mmHg 79%
09:00 +25°C° 0 mm 4 m/S 755 mmHg 72%
10:00 +25°C° 0 mm 4 m/S 756 mmHg 71%
11:00 +26°C° 0 mm 3 m/S 756 mmHg 71%
12:00 +26°C° 0 mm 3 m/S 756 mmHg 70%
13:00 +26°C° 0 mm 3 m/S 756 mmHg 69%
14:00 +26°C° 0 mm 3 m/S 756 mmHg 69%
15:00 +27°C° 0 mm 2 m/S 756 mmHg 68%
16:00 +25°C° 0.4 mm 2 m/S 756 mmHg 76%
17:00 +24°C° 0.4 mm 3 m/S 756 mmHg 83%
18:00 +21°C° 0.4 mm 3 m/S 756 mmHg 90%
19:00 +20°C° 4.4 mm 3 m/S 756 mmHg 93%
20:00 +20°C° 4.4 mm 2 m/S 756 mmHg 96%
21:00 +19°C° 4.4 mm 2 m/S 757 mmHg 99%
22:00 +19°C° 3.3 mm 2 m/S 757 mmHg 98%
23:00 +19°C° 3.3 mm 2 m/S 757 mmHg 98%

Morgen, 18 Juni, Freitag

Zeit Temperatur Niederschläge Wind Luftdruck Luftfeuchtigkeit
00:00 +19°C° 3.3 mm 2 m/S 757 mmHg 98%
01:00 +19°C° 0.2 mm 2 m/S 756 mmHg 98%
02:00 +19°C° 0.2 mm 1 m/S 756 mmHg 97%
03:00 +19°C° 0.2 mm 1 m/S 756 mmHg 97%
04:00 +20°C° 0.1 mm 1 m/S 756 mmHg 96%
05:00 +19°C° 0.1 mm 2 m/S 756 mmHg 96%
06:00 +20°C° 0.1 mm 2 m/S 756 mmHg 96%
07:00 +20°C° 0.7 mm 2 m/S 755 mmHg 94%
08:00 +21°C° 0.7 mm 2 m/S 755 mmHg 93%
09:00 +21°C° 0.7 mm 3 m/S 755 mmHg 92%
10:00 +21°C° 1 mm 3 m/S 755 mmHg 91%
11:00 +22°C° 1 mm 4 m/S 755 mmHg 90%
12:00 +22°C° 1 mm 4 m/S 754 mmHg 89%
13:00 +21°C° 0.5 mm 5 m/S 755 mmHg 91%
14:00 +20°C° 0.5 mm 6 m/S 755 mmHg 93%
15:00 +17°C° 0.5 mm 6 m/S 755 mmHg 94%
16:00 +17°C° 0.1 mm 6 m/S 756 mmHg 94%
17:00 +16°C° 0.1 mm 5 m/S 757 mmHg 94%
18:00 +15°C° 0.1 mm 5 m/S 758 mmHg 95%
19:00 +15°C° 0 mm 5 m/S 758 mmHg 95%
20:00 +14°C° 0 mm 4 m/S 759 mmHg 95%
21:00 +14°C° 0 mm 4 m/S 759 mmHg 94%
22:00 +14°C° 0 mm 3 m/S 759 mmHg 94%
23:00 +14°C° 0 mm 3 m/S 760 mmHg 94%

übermorgen, 19 Juni, Samstag

Zeit Temperatur Niederschläge Wind Luftdruck Luftfeuchtigkeit
00:00 +15°C° 0 mm 2 m/S 760 mmHg 94%
01:00 +15°C° 0 mm 2 m/S 760 mmHg 94%
02:00 +15°C° 0 mm 1 m/S 760 mmHg 94%
03:00 +15°C° 0 mm 1 m/S 760 mmHg 93%
04:00 +15°C° 0 mm 1 m/S 760 mmHg 92%
05:00 +16°C° 0 mm 1 m/S 760 mmHg 91%
06:00 +15°C° 0 mm 0 m/S 760 mmHg 90%
07:00 +18°C° 0 mm 1 m/S 760 mmHg 85%
08:00 +19°C° 0 mm 1 m/S 760 mmHg 81%
09:00 +20°C° 0 mm 1 m/S 760 mmHg 77%
10:00 +20°C° 0 mm 2 m/S 760 mmHg 73%
11:00 +21°C° 0 mm 2 m/S 759 mmHg 69%
12:00 +24°C° 0 mm 2 m/S 759 mmHg 65%
13:00 +24°C° 0 mm 3 m/S 759 mmHg 64%
14:00 +25°C° 0 mm 3 m/S 758 mmHg 63%
15:00 +26°C° 0 mm 4 m/S 757 mmHg 62%
16:00 +25°C° 0 mm 4 m/S 757 mmHg 66%
17:00 +25°C° 0 mm 4 m/S 756 mmHg 70%
18:00 +23°C° 0 mm 5 m/S 755 mmHg 74%
19:00 +22°C° 0 mm 4 m/S 755 mmHg 78%
20:00 +21°C° 0 mm 4 m/S 754 mmHg 81%
21:00 +20°C° 0 mm 4 m/S 754 mmHg 85%
22:00 +19°C° 0.2 mm 4 m/S 753 mmHg 87%
23:00 +19°C° 0.2 mm 4 m/S 752 mmHg 89%

20 Juni, Sonntag

Zeit Temperatur Niederschläge Wind Luftdruck Luftfeuchtigkeit
00:00 +19°C° 0.2 mm 4 m/S 751 mmHg 91%
01:00 +18°C° 1.5 mm 3 m/S 750 mmHg 93%
02:00 +18°C° 1.5 mm 3 m/S 749 mmHg 95%
03:00 +18°C° 1.5 mm 3 m/S 749 mmHg 98%
04:00 +19°C° 1.2 mm 4 m/S 749 mmHg 96%
05:00 +19°C° 1.2 mm 5 m/S 749 mmHg 95%
06:00 +19°C° 1.2 mm 5 m/S 749 mmHg 94%
07:00 +20°C° 0 mm 6 m/S 749 mmHg 92%
08:00 +20°C° 0 mm 6 m/S 750 mmHg 90%
09:00 +20°C° 0 mm 6 m/S 750 mmHg 88%
10:00 +21°C° 0.4 mm 6 m/S 750 mmHg 85%
11:00 +21°C° 0.4 mm 5 m/S 750 mmHg 83%
12:00 +22°C° 0.4 mm 5 m/S 751 mmHg 81%
13:00 +22°C° 1.1 mm 5 m/S 751 mmHg 81%
14:00 +22°C° 1.1 mm 5 m/S 751 mmHg 82%
15:00 +22°C° 1.1 mm 5 m/S 751 mmHg 82%
16:00 +21°C° 0.5 mm 5 m/S 751 mmHg 84%
17:00 +21°C° 0.5 mm 5 m/S 751 mmHg 86%
18:00 +20°C° 0.5 mm 4 m/S 751 mmHg 87%
19:00 +19°C° 0 mm 4 m/S 751 mmHg 90%
20:00 +18°C° 0 mm 4 m/S 751 mmHg 92%
21:00 +17°C° 0 mm 3 m/S 752 mmHg 95%
22:00 +15°C° 0 mm 4 m/S 752 mmHg 95%
23:00 +15°C° 0 mm 4 m/S 752 mmHg 94%

21 Juni, Montag

Zeit Temperatur Niederschläge Wind Luftdruck Luftfeuchtigkeit
00:00 +14°C° 0 mm 4 m/S 752 mmHg 94%
01:00 +14°C° 0 mm 4 m/S 752 mmHg 94%
02:00 +14°C° 0 mm 4 m/S 752 mmHg 94%
03:00 +14°C° 0 mm 4 m/S 752 mmHg 94%
04:00 +14°C° 0 mm 5 m/S 752 mmHg 92%
05:00 +15°C° 0 mm 5 m/S 752 mmHg 90%
06:00 +15°C° 0 mm 5 m/S 752 mmHg 88%
07:00 +17°C° 0 mm 6 m/S 752 mmHg 81%
08:00 +18°C° 0 mm 7 m/S 752 mmHg 75%
09:00 +21°C° 0 mm 7 m/S 752 mmHg 68%
10:00 +21°C° 0.1 mm 7 m/S 752 mmHg 69%
11:00 +21°C° 0.1 mm 7 m/S 752 mmHg 69%
12:00 +21°C° 0.1 mm 7 m/S 752 mmHg 70%
13:00 +21°C° 0.5 mm 7 m/S 752 mmHg 72%
14:00 +21°C° 0.5 mm 7 m/S 752 mmHg 74%
15:00 +21°C° 0.5 mm 7 m/S 752 mmHg 77%
16:00 +20°C° 0.4 mm 7 m/S 752 mmHg 79%
17:00 +20°C° 0.4 mm 7 m/S 752 mmHg 80%
18:00 +19°C° 0.4 mm 6 m/S 752 mmHg 82%
19:00 +17°C° 0.2 mm 6 m/S 752 mmHg 85%
20:00 +16°C° 0.2 mm 6 m/S 753 mmHg 89%
21:00 +15°C° 0.2 mm 5 m/S 753 mmHg 92%
22:00 +14°C° 0 mm 6 m/S 753 mmHg 93%
23:00 +14°C° 0 mm 6 m/S 753 mmHg 93%

22 Juni, Dienstag

Zeit Temperatur Niederschläge Wind Luftdruck Luftfeuchtigkeit
00:00 +14°C° 0 mm 6 m/S 753 mmHg 94%
01:00 +14°C° 0 mm 6 m/S 753 mmHg 94%
02:00 +13°C° 0 mm 6 m/S 753 mmHg 95%
03:00 +13°C° 0 mm 6 m/S 754 mmHg 95%
04:00 +13°C° 0 mm 6 m/S 754 mmHg 93%
05:00 +13°C° 0 mm 6 m/S 754 mmHg 92%
06:00 +13°C° 0 mm 6 m/S 755 mmHg 90%
07:00 +13°C° 0.1 mm 6 m/S 755 mmHg 90%
08:00 +13°C° 0.1 mm 6 m/S 756 mmHg 89%
09:00 +13°C° 0.1 mm 5 m/S 756 mmHg 88%
10:00 +14°C° 0.1 mm 6 m/S 757 mmHg 82%
11:00 +14°C° 0.1 mm 7 m/S 758 mmHg 76%
12:00 +14°C° 0.1 mm 7 m/S 758 mmHg 70%
13:00 +14°C° 0 mm 7 m/S 759 mmHg 68%
14:00 +14°C° 0 mm 7 m/S 759 mmHg 67%
15:00 +14°C° 0 mm 7 m/S 759 mmHg 65%
16:00 +14°C° 0 mm 7 m/S 760 mmHg 67%
17:00 +14°C° 0 mm 7 m/S 760 mmHg 69%
18:00 +13°C° 0 mm 6 m/S 760 mmHg 71%
19:00 +13°C° 0 mm 6 m/S 761 mmHg 72%
20:00 +11°C° 0 mm 6 m/S 761 mmHg 74%
21:00 +10°C° 0 mm 6 m/S 762 mmHg 75%
22:00 +9°C° 0 mm 5 m/S 762 mmHg 77%
23:00 +9°C° 0 mm 5 m/S 762 mmHg 79%
Mehr zeigen

Wir brauchen deine Erlaubnis

Meteoprog und unser Service Anbieter werden persönliche Daten aufbewahren, so wie Cookies, Geräte Bezeichnung oder ähnliche Technologien von deinem Gerät und Prozess, so wie Persönliche Daten Inhalte und Werbungen, genauso wie social Media und den Verkehr zu analysieren.

  • Aufbewahrung und/oder Zugang zu deiner Geräte Informationen.

    Cookies, Geräte Bezeichnung oder andere Informationen, können aufbewahrt oder Zugang zu deinem Gerät erhalten, für den Grund, der oben angegeben wird.

  • Personalisierte Werbung und Inhalte, Messungen, Einblick in das Publikum und Produkt Entwicklung.

    Werbungen und Inhalte können personalisiert werden, basierend auf ein Profil. Mehr Daten können besser personalisierte Werbungen und Inhalte hinzufügen. Werbung und Inhalte können gezeigt und gemessen werden. Einblicke über das Publikum, welche die Werbung gesehen haben und den Inhalt, können abgeleitet werden. So wie Daten können genutzt werden, um es zu verbessern oder die Benutzer Erfahrung zu verbessern das System und die Software.

Wenn du “Ich stimme zu” klickst, erlaubst du uns, die Cookies zu benutzen die Geräte Bezeichnung, den Web oder ähnliche Technologien zu benutzen. Deine Settings, können in deinem Gerät bei deinem Browser geändert werden.

Für den bestimmten Zweck, berechtigten Interessen beruhen darauf, mehr als auf den Inhalt. Du kannst mehr darüber in unseren Privaten und Cookie Politik lesen.